Fayetteville, NC

2:26 AM EST on December 06, 2016 (GMT -0500)
Simmons Army Air Field

Weather History for KFBG - December, 2012

Change the Weather History Date:

Friday, December 7, 2012

  Actual Average Record
Temperature  
Mean Temperature 54 °F -  
Max Temperature 61 °F 55 °F 78 °F (1998)
Min Temperature 46 °F 37 °F 21 °F (2010)
Degree Days  
Heating Degree Days 12    
Growing Degree Days 4 (Base 50)    
Moisture  
Dew Point 45 °F    
Average Humidity 77    
Maximum Humidity 100    
Minimum Humidity 62    
Precipitation  
Precipitation 0.01 in - - ()
Sea Level Pressure  
Sea Level Pressure 30.09 in    
Wind  
Wind Speed 5 mph (NNE)    
Max Wind Speed 8 mph    
Max Gust Speed -    
Visibility 10 miles    
Events Rain    
Averages and records for this station are not official NWS values.
T = Trace of Precipitation, MM = Missing Value Source: NWS Daily Summary

Daily Weather History Graph

Daily Weather History Graph

Search for Another Location

Airport or City:

Trip Planner

Search our weather history database for the weather conditions in past years. The results will help you decide how hot, cold, wet, or windy it might be!

Date:

Astronomy

Dec. 07, 2012 Rise Set
Actual Time 7:11 AM EST 5:03 PM EST
Civil Twilight 6:43 AM EST 5:31 PM EST
Nautical Twilight 6:11 AM EST 6:03 PM EST
Astronomical Twilight 5:40 AM EST 6:34 PM EST
Moon 12:41 AM EST (12/7) 12:48 PM EST (12/7)
Length of Visible Light 10h 48m
Length of Day
9h 52m
Last Quarter, 39% of the Moon is Illuminated
Dec 7
Last Quarter
Dec 13
New
Dec 20
First Quarter
Dec 28
Full
Jan 4
Last Quarter

Hourly Weather History & Observations

Time (EST) Temp. Windchill Dew Point Humidity Pressure Visibility Wind Dir Wind Speed Gust Speed Precip Events Conditions
12:55 AM 47.7 °F - 35.1 °F 62% 30.19 in 10.0 mi North 4.6 mph - N/A   Overcast
1:55 AM 47.5 °F - 35.2 °F 63% 30.19 in 10.0 mi North 4.6 mph - N/A   Overcast
2:55 AM 47.5 °F - 35.6 °F 63% 30.17 in 10.0 mi NNE 4.6 mph - N/A   Overcast
3:55 AM 47.5 °F - 36.5 °F 66% 30.16 in 10.0 mi NNE 6.9 mph - N/A   Overcast
4:55 AM 47.3 °F - 36.9 °F 67% 30.15 in 10.0 mi North 4.6 mph - N/A   Overcast
5:55 AM 47.3 °F - 37.4 °F 68% 30.16 in 10.0 mi North 6.9 mph - N/A   Overcast
6:10 AM 48.2 °F - 37.4 °F 66% 30.16 in 10.0 mi NNE 5.8 mph - N/A Rain Light Rain
6:27 AM 46.4 °F 44.3 °F 39.2 °F 76% 30.16 in 10.0 mi NNE 4.6 mph - N/A   Overcast
6:40 AM 46.4 °F 42.9 °F 39.2 °F 76% 30.16 in 10.0 mi NNE 6.9 mph - N/A   Overcast
6:55 AM 46.8 °F - 38.7 °F 73% 30.16 in 10.0 mi North 4.6 mph - 0.00 in   Overcast
7:21 AM 46.4 °F 44.3 °F 39.2 °F 76% 30.16 in 10.0 mi NNE 4.6 mph - N/A   Overcast
7:39 AM 46.4 °F 45.2 °F 39.2 °F 76% 30.16 in 10.0 mi NE 3.5 mph - N/A   Overcast
7:43 AM 46.4 °F 45.2 °F 39.2 °F 76% 30.16 in 10.0 mi NNE 3.5 mph - N/A   Overcast
7:55 AM 47.3 °F - 39.0 °F 73% 30.15 in 10.0 mi NE 5.8 mph - N/A   Overcast
8:55 AM 48.0 °F - 39.4 °F 72% 30.16 in 10.0 mi NE 5.8 mph - N/A   Mostly Cloudy
9:20 AM 48.2 °F - 39.2 °F 71% 30.16 in 10.0 mi ENE 8.1 mph - N/A   Mostly Cloudy
9:37 AM 50.0 °F - 41.0 °F 71% 30.15 in 10.0 mi ENE 8.1 mph - N/A   Mostly Cloudy
9:55 AM 49.6 °F - 40.8 °F 72% 30.15 in 10.0 mi ENE 8.1 mph - N/A   Mostly Cloudy
9:56 AM 50.0 °F - 41.0 °F 71% 30.16 in 10.0 mi ENE 6.9 mph - N/A   Mostly Cloudy
10:01 AM 50.0 °F - 41.0 °F 71% 30.16 in 10.0 mi ENE 6.9 mph - N/A   Mostly Cloudy
10:14 AM 50.0 °F - 41.0 °F 71% 30.15 in 10.0 mi ENE 6.9 mph - N/A   Mostly Cloudy
10:21 AM 50.0 °F - 41.0 °F 71% 30.15 in 10.0 mi Variable 3.5 mph - N/A   Mostly Cloudy
10:55 AM 51.8 °F - 42.6 °F 71% 30.14 in 10.0 mi NE 4.6 mph - N/A   Overcast
11:00 AM 51.8 °F - 42.8 °F 71% 30.13 in 10.0 mi NE 4.6 mph - N/A   Mostly Cloudy
11:40 AM 53.6 °F - 44.6 °F 72% 30.11 in 10.0 mi Calm Calm - N/A   Mostly Cloudy
11:55 AM 55.0 °F - 44.4 °F 67% 30.10 in 10.0 mi Variable 3.5 mph - N/A   Scattered Clouds
12:22 PM 57.2 °F - 46.4 °F 67% 30.08 in 10.0 mi NE 4.6 mph - N/A   Mostly Cloudy
12:40 PM 59.0 °F - 46.4 °F 63% 30.07 in 10.0 mi Calm Calm - N/A   Scattered Clouds
12:55 PM 59.2 °F - 47.1 °F 64% 30.06 in 10.0 mi Variable 4.6 mph - N/A   Partly Cloudy
1:22 PM 60.8 °F - 48.2 °F 63% 30.05 in 10.0 mi ENE 3.5 mph - N/A   Mostly Cloudy
1:55 PM 60.6 °F - 48.4 °F 64% 30.03 in 10.0 mi Calm Calm - N/A   Overcast
2:55 PM 61.3 °F - 49.6 °F 65% 30.02 in 10.0 mi NNE 3.5 mph - N/A   Overcast
3:55 PM 60.4 °F - 50.2 °F 69% 30.03 in 10.0 mi Calm Calm - N/A   Overcast
4:55 PM 59.5 °F - 50.7 °F 73% 30.02 in 10.0 mi North 3.5 mph - N/A   Overcast
5:55 PM 58.6 °F - 50.9 °F 75% 30.01 in 10.0 mi North 3.5 mph - N/A   Overcast
6:55 PM 58.1 °F - 50.7 °F 76% 30.02 in 8.0 mi NW 5.8 mph - N/A   Overcast
7:55 PM 54.7 °F - 52.2 °F 91% 30.02 in 10.0 mi NNW 5.8 mph - N/A   Overcast
8:06 PM 53.6 °F - 51.8 °F 94% 30.02 in 10.0 mi NNW 8.1 mph - N/A Rain Light Rain
8:27 PM 53.6 °F - 51.8 °F 94% 30.02 in 8.0 mi Calm Calm - N/A Rain Light Rain
8:32 PM 53.6 °F - 53.6 °F 100% 30.03 in 8.0 mi NW 4.6 mph - N/A   Overcast
8:40 PM 53.6 °F - 51.8 °F 94% 30.02 in 7.0 mi WNW 5.8 mph - N/A   Overcast
8:55 PM 52.9 °F - 52.3 °F 98% 30.02 in 7.0 mi NW 4.6 mph - 0.01 in   Overcast
9:46 PM 53.6 °F - 51.8 °F 94% 30.01 in 9.0 mi NNW 4.6 mph - N/A   Overcast
9:55 PM 52.7 °F - 52.3 °F 99% 30.01 in 9.0 mi NNW 4.6 mph - N/A   Overcast
10:39 PM 51.8 °F - 51.8 °F 100% 30.01 in 8.0 mi Calm Calm - N/A   Light Drizzle
10:55 PM 52.7 °F - 52.3 °F 99% 30.01 in 7.0 mi NW 4.6 mph - 0.00 in   Light Drizzle
10:56 PM 51.8 °F - 51.8 °F 100% 30.01 in 7.0 mi NNW 4.6 mph - N/A   Overcast
11:55 PM 52.5 °F - 52.3 °F 99% 30.00 in 10.0 mi NNW 3.5 mph - 0.00 in   Overcast
11:57 PM 51.8 °F - 51.8 °F 100% 30.00 in 10.0 mi Calm Calm - N/A   Overcast